Time,TemperatureF,DewpointF,PressureIn,WindDirection,WindDirectionDegrees,WindSpeedMPH,WindSpeedGustMPH,Humidity,HourlyPrecipIn,Conditions,Clouds,dailyrainin,SoftwareType,DateUTC
2013-09-11 00:52:00,62.0,57.0,29.60,SW,222,0.0,0.0,83,0.00,,,-99.99,,2013-09-11 07:52:00,
2013-09-11 01:11:00,62.0,57.0,29.60,SW,222,0.0,0.0,83,0.00,,,-99.99,,2013-09-11 08:11:00,
2013-09-11 01:22:00,62.0,57.0,29.60,SW,222,0.0,0.0,83,0.00,,,-99.99,,2013-09-11 08:22:00,
2013-09-11 01:52:00,61.0,56.0,29.61,SW,222,0.0,0.0,83,0.00,,,-99.99,,2013-09-11 08:52:00,
2013-09-11 02:11:00,62.0,57.0,29.61,SW,222,0.0,0.0,83,0.00,,,-99.99,,2013-09-11 09:11:00,
2013-09-11 02:21:00,62.0,57.0,29.61,SW,222,0.0,0.0,83,0.00,,,-99.99,,2013-09-11 09:21:00,
2013-09-11 02:53:00,61.0,56.0,29.61,SW,222,0.0,0.0,83,0.00,,,-99.99,,2013-09-11 09:53:00,
2013-09-11 03:12:00,62.0,56.0,29.61,SW,222,0.0,0.0,82,0.00,,,-99.99,,2013-09-11 10:12:00,
2013-09-11 03:23:00,62.0,56.0,29.61,SW,222,0.0,0.0,82,0.00,,,-99.99,,2013-09-11 10:23:00,
2013-09-11 03:33:00,62.0,56.0,29.61,SW,222,0.0,0.0,82,0.00,,,-99.99,,2013-09-11 10:33:00,
2013-09-11 04:12:00,61.0,55.0,29.61,NW,315,1.0,3.0,82,0.00,,,-99.99,,2013-09-11 11:12:00,
2013-09-11 04:21:00,61.0,55.0,29.61,NW,315,1.0,3.0,82,0.00,,,-99.99,,2013-09-11 11:21:00,
2013-09-11 04:33:00,61.0,55.0,29.61,NW,315,1.0,3.0,82,0.00,,,-99.99,,2013-09-11 11:33:00,
2013-09-11 05:11:00,62.0,57.0,29.61,NW,317,1.0,3.0,83,0.00,,,-99.99,,2013-09-11 12:11:00,
2013-09-11 05:21:00,62.0,57.0,29.61,NW,317,1.0,3.0,83,0.00,,,-99.99,,2013-09-11 12:21:00,
2013-09-11 05:52:00,62.0,57.0,29.61,NW,317,1.0,3.0,83,0.00,,,-99.99,,2013-09-11 12:52:00,
2013-09-11 06:21:00,62.0,57.0,29.62,NW,319,0.0,1.0,83,0.00,,,-99.99,,2013-09-11 13:21:00,
2013-09-11 06:32:00,62.0,57.0,29.62,NW,319,0.0,1.0,83,0.00,,,-99.99,,2013-09-11 13:32:00,
2013-09-11 09:13:00,63.0,57.0,29.66,NNE,15,1.0,5.0,81,0.00,,,-99.99,,2013-09-11 16:13:00,
2013-09-11 09:23:00,63.0,57.0,29.66,NNE,15,1.0,5.0,81,0.00,,,-99.99,,2013-09-11 16:23:00,
2013-09-11 09:53:00,63.0,57.0,29.66,NNW,340,1.0,5.0,80,0.00,,,-99.99,,2013-09-11 16:53:00,
2013-09-11 10:12:00,64.0,57.0,29.66,North,11,1.0,4.0,79,0.00,,,-99.99,,2013-09-11 17:12:00,
2013-09-11 10:23:00,64.0,57.0,29.66,North,11,1.0,4.0,79,0.00,,,-99.99,,2013-09-11 17:23:00,
2013-09-11 10:52:00,66.0,58.0,29.66,NW,311,2.0,5.0,75,0.00,,,-99.99,,2013-09-11 17:52:00,
2013-09-11 11:12:00,68.0,57.0,29.66,WNW,284,1.0,5.0,69,0.00,,,-99.99,,2013-09-11 18:12:00,
2013-09-11 11:21:00,68.0,57.0,29.66,WNW,284,1.0,5.0,69,0.00,,,-99.99,,2013-09-11 18:21:00,
2013-09-11 11:52:00,71.0,59.0,29.66,WNW,291,2.0,8.0,65,0.00,,,-99.99,,2013-09-11 18:52:00,
2013-09-11 12:11:00,73.0,60.0,29.65,SSW,212,1.0,6.0,63,0.00,,,-99.99,,2013-09-11 19:11:00,
2013-09-11 12:21:00,73.0,60.0,29.65,SSW,212,1.0,6.0,63,0.00,,,-99.99,,2013-09-11 19:21:00,
2013-09-11 12:53:00,74.0,59.0,29.65,SSW,192,1.0,6.0,60,0.00,,,-99.99,,2013-09-11 19:53:00,
2013-09-11 13:12:00,75.0,59.0,29.64,SW,236,1.0,5.0,58,0.00,,,-99.99,,2013-09-11 20:12:00,
2013-09-11 13:21:00,75.0,59.0,29.64,SW,236,1.0,5.0,58,0.00,,,-99.99,,2013-09-11 20:21:00,
2013-09-11 13:52:00,75.0,59.0,29.64,SSW,197,1.0,7.0,58,0.00,,,-99.99,,2013-09-11 20:52:00,
2013-09-11 14:11:00,75.0,59.0,29.64,SSE,167,1.0,7.0,58,0.00,,,-99.99,,2013-09-11 21:11:00,
2013-09-11 14:21:00,75.0,59.0,29.64,SSE,167,1.0,7.0,58,0.00,,,-99.99,,2013-09-11 21:21:00,
2013-09-11 14:54:00,74.0,58.0,29.63,WSW,240,1.0,5.0,57,0.00,,,-99.99,,2013-09-11 21:54:00,
2013-09-11 15:04:00,74.0,58.0,29.63,WSW,240,1.0,5.0,57,0.00,,,-99.99,,2013-09-11 22:04:00,
2013-09-11 15:13:00,74.0,58.0,29.63,WSW,240,1.0,5.0,57,0.00,,,-99.99,,2013-09-11 22:13:00,
2013-09-11 15:54:00,75.0,59.0,29.62,South,181,1.0,5.0,58,0.00,,,-99.99,,2013-09-11 22:54:00,
2013-09-11 16:03:00,75.0,59.0,29.62,South,181,1.0,5.0,58,0.00,,,-99.99,,2013-09-11 23:03:00,
2013-09-11 16:12:00,75.0,59.0,29.62,South,181,1.0,5.0,58,0.00,,,-99.99,,2013-09-11 23:12:00,
2013-09-11 16:42:00,75.0,60.0,29.61,SSE,163,0.0,3.0,60,0.00,,,-99.99,,2013-09-11 23:42:00,
2013-09-11 16:53:00,75.0,60.0,29.61,SSE,163,0.0,3.0,60,0.00,,,-99.99,,2013-09-11 23:53:00,
2013-09-11 17:21:00,74.0,58.0,29.60,WSW,250,0.0,4.0,58,0.00,,,-99.99,,2013-09-12 00:21:00,
2013-09-11 17:52:00,73.0,58.0,29.60,SW,231,1.0,6.0,59,0.00,,,-99.99,,2013-09-12 00:52:00,
2013-09-11 18:11:00,73.0,58.0,29.61,WNW,283,1.0,9.0,59,0.00,,,-99.99,,2013-09-12 01:11:00,
2013-09-11 18:22:00,73.0,58.0,29.61,WNW,283,1.0,9.0,59,0.00,,,-99.99,,2013-09-12 01:22:00,
2013-09-11 18:52:00,71.0,57.0,29.61,West,277,0.0,6.0,62,0.00,,,-99.99,,2013-09-12 01:52:00,
2013-09-11 19:11:00,69.0,57.0,29.60,WSW,250,0.0,7.0,66,0.00,,,-99.99,,2013-09-12 02:11:00,
2013-09-11 19:22:00,69.0,57.0,29.60,WSW,250,0.0,7.0,66,0.00,,,-99.99,,2013-09-12 02:22:00,
2013-09-11 19:33:00,69.0,57.0,29.60,WSW,250,0.0,7.0,66,0.00,,,-99.99,,2013-09-12 02:33:00,
2013-09-11 19:42:00,69.0,57.0,29.60,WSW,250,0.0,7.0,66,0.00,,,-99.99,,2013-09-12 02:42:00,
2013-09-11 20:55:00,65.0,56.0,29.60,West,276,0.0,2.0,74,0.00,,,-99.99,,2013-09-12 03:55:00,
2013-09-11 21:05:00,65.0,56.0,29.60,West,276,0.0,2.0,74,0.00,,,-99.99,,2013-09-12 04:05:00,
2013-09-11 21:14:00,65.0,56.0,29.60,West,276,0.0,2.0,74,0.00,,,-99.99,,2013-09-12 04:14:00,
2013-09-11 21:44:00,63.0,56.0,29.61,West,276,0.0,0.0,78,0.00,,,-99.99,,2013-09-12 04:44:00,
2013-09-11 21:54:00,63.0,56.0,29.61,West,276,0.0,0.0,78,0.00,,,-99.99,,2013-09-12 04:54:00,
2013-09-11 22:13:00,62.0,55.0,29.61,West,276,0.0,0.0,79,0.00,,,-99.99,,2013-09-12 05:13:00,
2013-09-11 22:22:00,62.0,55.0,29.61,West,276,0.0,0.0,79,0.00,,,-99.99,,2013-09-12 05:22:00,
2013-09-11 22:53:00,62.0,56.0,29.61,West,276,0.0,0.0,81,0.00,,,-99.99,,2013-09-12 05:53:00,
2013-09-11 23:01:00,62.0,56.0,29.61,West,276,0.0,0.0,81,0.00,,,-99.99,,2013-09-12 06:01:00,
2013-09-11 23:12:00,62.0,56.0,29.61,West,276,0.0,0.0,81,0.00,,,-99.99,,2013-09-12 06:12:00,
2013-09-11 23:52:00,62.0,57.0,29.61,West,276,0.0,0.0,83,0.00,,,-99.99,,2013-09-12 06:52:00,